Location: Niedergestelen
(46.3129°N, 7.7822°E)
Time: 15:48:31
(UTC+00:00)

NOSS 3-2 (C) - Pass Details

Date: 01 December 2020
Orbit: 789 x 1424 km, 63.4° (Epoch: 09 January)

Event Time Altitude Azimuth Distance (km) Brightness Sun altitude
Rises 18:07:54 0° 200° (SSW) 3,318 6.6 -24.1°
Reaches altitude 10° 18:10:15 10° 195° (SSW) 2,432 5.8 -24.5°
Enters shadow 18:15:13 51° 136° (SE) 1,107 3.5 -25.3°
